Location: *
(48.8489°N, 2.3218°E)
Time: 09:36:56
(UTC+00:00)

MTI - Pass Details

Date: 23 August 2019
Orbit: 400 x 412 km, 97.5° (Epoch: 14 September)

Event Time Altitude Azimuth Distance (km) Brightness Sun altitude
Rises 20:25:11 0° 18° (NNE) 2,359 7.8 -14.4°
Reaches altitude 10° 20:27:14 10° 24° (NNE) 1,489 6.7 -14.7°
Maximum altitude 20:30:19 48° 100° (E) 548 3.9 -15.1°
Enters shadow 20:31:19 34° 152° (SSE) 704 4.4 -15.2°
